Theta_e
321 321 321 320 318 317 317 317 317 317 317 317 316 316 316 317 316 316 316 316 316 316 316 316 317 318 313 303 299 311 350 335 330 320 309 305 305 309 306 309 325 321 327 328 334 332 331
320 321 320 319 318 317 317 317 318 317 317 317 317 317 316 316 316 316 317 316 315 316 316 316 316 318 306 291 304 321 329 331 323 311 307 307 308 313 313 312 319 326 327 328 331 331 329
320 320 320 319 318 318 318 318 317 317 317 317 316 317 317 316 316 316 316 315 315 315 315 316 317 316 308 299 319 323 321 316 311 308 305 308 312 317 316 310 313 315 321 326 328 330 327
322 321 320 319 318 319 318 317 317 317 317 317 317 316 316 316 315 315 314 314 314 314 315 316 317 310 297 311 314 311 314 308 308 303 304 311 316 316 316 316 307 305 316 316 325 330 328
322 321 320 319 318 318 318 318 317 316 316 316 316 316 316 315 314 314 314 315 316 316 317 318 306 303 298 316 310 311 312 311 306 302 303 312 317 312 309 300 296 298 298 312 319 330 327
322 322 320 319 318 319 318 318 317 317 316 316 316 316 315 315 314 315 314 315 315 316 319 318 314 301 306 304 308 311 311 313 305 304 304 305 305 299 296 295 291 294 296 307 317 325 327
321 321 320 319 318 318 318 318 318 317 317 316 316 314 314 314 313 313 308 307 305 303 307 297 298 303 308 311 311 308 313 309 305 302 297 302 297 294 298 299 299 299 299 315 320 323 319
321 319 319 319 318 318 318 318 318 317 316 316 316 315 314 313 312 312 304 301 307 306 299 308 306 307 311 308 303 305 311 304 302 297 302 297 294 300 303 302 300 299 307 313 319 324 321
321 320 318 319 318 318 317 317 317 317 317 316 315 315 314 313 311 306 302 304 310 307 297 301 306 305 305 306 302 303 310 306 301 298 299 296 299 304 302 300 299 294 297 312 313 318 322
321 320 319 319 318 317 317 317 317 317 317 316 315 314 314 312 303 304 303 306 308 307 289 296 298 305 306 305 302 311 311 307 301 300 300 298 304 303 299 299 299 290 300 314 315 310 304
320 320 319 318 319 317 316 316 317 316 316 316 315 315 313 310 301 301 306 306 306 300 284 303 301 307 303 303 305 306 310 305 299 300 299 297 299 300 298 300 301 298 303 311 315 309 308
321 320 320 319 319 317 316 316 316 316 316 315 315 313 311 306 304 307 309 307 301 290 287 300 303 302 298 301 303 308 306 307 306 301 299 300 303 301 300 303 303 306 311 310 307 304 297
321 320 321 319 319 316 315 316 316 315 315 314 313 310 308 310 304 307 307 302 292 287 301 298 297 300 296 294 300 303 301 297 295 291 290 298 300 302 303 296 299 299 300 293 294 295 295
321 320 320 319 318 316 315 316 316 315 314 313 310 308 307 310 307 309 304 297 288 297 296 301 301 298 293 297 298 300 298 296 297 296 291 290 290 299 301 299 295 295 297 290 288 291 294
321 319 319 318 317 316 315 316 315 314 314 311 308 303 304 308 310 306 298 288 289 294 300 300 297 294 293 300 299 298 297 295 299 297 292 289 292 303 303 302 301 295 293 297 292 291 296
321 318 318 318 318 315 315 316 315 314 313 311 303 305 304 311 311 304 296 291 293 301 303 298 292 295 292 296 296 294 296 298 299 301 296 293 290 297 303 302 304 297 300 294 291 287 287
320 318 319 318 317 315 316 316 315 314 312 310 304 304 309 310 308 300 292 291 298 303 304 297 294 294 293 296 297 296 293 299 300 299 300 295 293 295 298 294 296 299 297 294 293 291 291
319 317 319 318 317 315 316 316 315 312 310 307 302 298 309 308 298 294 292 297 301 298 300 298 298 296 296 298 296 297 295 296 302 299 296 297 291 289 293 299 300 298 297 295 291 291 294
317 317 319 318 316 315 316 316 314 312 310 304 299 300 306 306 291 292 294 299 298 297 297 297 295 297 299 296 295 299 300 303 301 300 295 296 291 289 291 293 298 294 294 292 293 295 293
317 317 319 317 316 315 316 315 314 312 311 305 301 292 296 296 292 291 291 292 293 300 299 298 295 296 295 295 296 294 299 304 304 303 315 303 290 290 288 290 293 291 295 294 291 290 294
317 318 319 318 316 316 316 315 314 312 310 304 300 294 295 291 294 292 292 294 294 294 297 299 298 297 293 291 293 295 298 299 304 309 300 297 292 292 295 296 296 295 297 296 291 295 294
316 317 319 317 315 316 316 316 315 313 310 305 301 300 302 296 293 292 291 290 294 295 295 295 296 298 297 294 294 292 294 295 296 301 299 297 291 293 294 299 296 294 296 303 305 308 306
315 317 319 317 315 316 316 316 316 313 309 306 307 306 303 297 292 292 291 294 298 297 298 300 300 297 296 297 298 297 300 295 293 293 294 296 293 291 289 294 295 290 294 296 306 308 311
315 316 318 317 314 315 316 317 316 314 311 304 308 307 302 296 294 294 298 298 298 298 295 297 297 295 298 299 298 296 294 294 296 293 293 292 293 291 288 292 285 293 301 311 308 309 310
314 316 318 317 313 314 315 317 317 316 314 304 305 307 304 298 299 297 298 298 297 296 295 297 298 297 296 297 291 288 289 291 296 294 293 293 291 287 285 287 293 298 297 297 300 306 313
314 315 317 317 313 314 315 316 317 316 314 304 304 310 307 297 296 301 298 298 294 292 294 297 299 298 297 293 293 285 284 291 291 294 294 293 291 289 287 284 284 297 303 304 308 300 310
313 315 317 317 313 313 314 315 316 316 315 308 305 309 307 302 302 299 297 295 297 294 292 294 297 296 294 291 288 283 285 294 285 288 288 287 287 285 286 284 290 298 302 305 292 293 309
312 313 316 317 313 313 313 315 315 315 315 310 308 310 305 301 304 306 306 301 298 296 293 295 296 296 291 290 289 284 285 288 287 290 288 288 284 285 285 284 285 301 300 295 298 301 309
311 313 315 316 313 313 313 314 314 315 315 313 306 311 312 305 305 309 306 306 304 302 298 296 295 294 293 292 290 290 287 288 285 281 292 287 291 289 290 289 297 299 297 298 299 301 305
Wind_Speed
14 13 13 13 14 13 13 13 13 13 13 14 14 14 13 13 13 12 12 12 12 12 11 11 11 9 5 1 11 5 4 19 10 9 9 7 6 5 5 4 6 3 6 8 6 3 12
13 14 14 13 14 12 13 14 14 14 15 15 15 14 15 14 14 14 12 12 12 11 11 10 7 5 0 4 4 3 12 12 9 8 7 7 8 7 2 4 6 7 8 8 7 8 14
13 14 14 14 14 13 13 14 14 15 15 15 15 14 14 14 14 13 13 11 11 11 9 8 4 2 1 13 5 5 9 4 6 9 7 4 2 3 0 5 4 7 8 10 8 11 6
12 14 15 14 14 13 13 14 15 15 14 14 14 15 15 14 14 14 13 11 9 8 7 4 3 1 9 5 4 4 3 2 2 2 3 3 3 1 3 4 5 2 6 6 7 14 9
14 15 15 16 15 15 14 15 15 15 15 15 15 14 13 14 14 14 11 13 12 6 4 6 3 2 11 5 3 7 9 5 6 4 0 5 6 5 1 2 5 5 4 5 7 11 5
15 16 16 17 17 16 15 14 16 16 15 13 14 13 13 11 12 12 14 14 1 1 4 5 4 2 7 2 5 5 6 7 4 8 4 4 2 3 3 4 4 3 3 1 4 10 9
17 18 18 18 17 16 17 16 17 17 15 14 13 14 13 13 10 9 8 1 3 1 3 9 7 5 5 6 4 4 6 6 1 5 6 4 4 7 8 5 5 4 2 9 6 8 7
18 18 18 18 17 17 17 17 17 16 16 14 13 12 12 13 11 5 1 2 5 4 9 14 12 7 6 4 4 3 8 6 4 4 5 5 6 8 6 7 5 3 4 6 9 7 8
18 19 19 18 17 17 17 17 17 17 15 15 13 14 14 13 10 2 4 6 2 3 1 7 6 5 5 9 7 6 10 5 4 4 4 6 4 5 4 3 5 3 5 7 9 8 5
15 17 19 18 17 17 17 17 17 17 16 15 15 13 12 13 4 0 5 4 7 5 5 7 3 5 4 3 3 5 7 6 2 8 6 4 6 4 3 4 6 2 8 9 15 10 6
16 15 17 19 17 17 17 17 17 17 17 15 16 12 9 4 5 1 5 6 3 4 5 13 5 1 2 8 5 3 5 4 7 4 7 6 5 6 5 8 7 10 6 14 13 4 5
15 16 15 18 17 17 17 17 18 19 19 15 17 14 9 3 2 9 8 7 4 7 4 8 5 6 5 0 1 4 4 5 3 2 1 7 3 5 8 4 10 2 9 11 6 4 2
14 15 15 17 17 17 18 18 19 21 21 19 15 14 5 2 5 1 4 5 6 5 5 7 5 5 3 2 1 4 4 4 5 4 4 7 5 6 6 3 1 4 8 3 4 1 7
14 14 16 17 18 17 18 19 20 21 22 23 20 10 7 6 2 6 4 7 7 2 1 5 6 5 3 4 3 3 6 3 0 5 2 4 3 7 3 10 9 8 10 8 7 6 3
13 15 16 18 19 18 18 19 20 22 21 21 18 1 2 5 6 3 7 7 5 3 3 5 6 7 7 6 1 4 7 4 5 8 7 3 5 4 5 5 11 4 4 7 8 2 5
12 15 18 18 18 18 18 18 20 22 24 22 3 4 3 4 6 5 7 2 4 4 4 3 3 4 5 6 3 4 4 4 4 1 1 3 2 1 5 4 4 7 7 4 3 5 3
11 14 15 14 17 17 18 18 19 22 24 17 3 4 4 5 5 7 4 5 4 7 4 1 1 4 1 3 3 2 2 2 3 5 5 3 3 6 1 3 7 3 2 7 6 4 6
11 12 14 14 16 17 18 18 18 18 21 6 2 3 3 2 5 1 2 4 4 5 5 4 3 2 2 4 6 4 3 2 5 1 2 2 5 2 4 4 4 1 5 5 7 3 4
13 13 14 14 15 16 17 18 18 15 10 1 2 2 3 6 2 2 3 4 1 7 6 5 4 2 4 3 4 4 3 3 8 4 2 2 4 2 7 7 7 7 5 4 6 4 4
14 13 14 15 15 16 17 18 18 17 10 3 3 3 5 5 2 5 4 4 4 7 6 4 4 3 5 7 6 2 5 6 6 6 3 5 3 4 5 5 2 3 4 3 5 4 6
12 13 13 13 15 15 16 18 19 19 8 2 3 1 4 1 4 5 4 2 4 5 4 8 8 7 1 5 7 6 4 7 6 10 5 5 4 1 2 3 3 1 3 3 4 4 5
13 13 14 15 15 16 16 17 20 20 2 4 3 3 4 2 3 4 5 3 4 4 5 5 4 6 6 5 2 3 4 5 2 8 5 4 2 0 6 6 6 4 8 9 5 6 7
13 13 13 14 14 15 16 17 18 21 9 3 2 2 4 5 4 5 3 1 2 5 4 3 2 3 5 5 4 4 3 0 3 4 4 4 3 3 1 5 5 8 9 6 4 2 22
12 13 13 13 14 14 14 14 16 16 11 1 1 2 4 2 2 2 1 2 4 2 4 1 3 2 3 4 2 3 5 5 5 6 2 3 4 3 1 4 4 5 7 9 12 3 5
13 12 13 12 12 13 13 13 13 14 13 1 1 2 3 2 1 2 3 3 3 3 2 2 1 3 4 6 5 6 6 5 7 7 8 5 4 4 4 2 1 7 8 5 3 7 7
12 12 12 9 11 12 13 14 13 13 15 1 2 1 3 6 3 3 3 2 2 0 6 3 3 1 7 4 4 3 1 1 3 7 4 6 7 5 2 3 4 7 8 4 5 4 4
12 12 11 8 11 12 13 14 14 14 13 3 3 1 4 4 4 2 2 3 4 2 2 4 5 5 4 4 4 2 2 2 1 2 4 5 5 3 1 1 3 3 7 9 5 9 12
11 12 12 8 9 11 11 12 13 14 14 5 3 2 3 3 5 3 2 4 2 2 4 4 5 5 4 5 3 2 2 2 3 1 2 3 3 1 1 3 2 5 6 6 3 4 13
11 11 11 8 8 10 11 12 13 13 13 8 2 3 1 4 5 2 3 1 4 7 7 2 5 2 4 5 1 3 1 2 2 2 3 2 5 5 5 6 5 4 2 3 2 3 5
Wind_Direction
355 354 352 350 348 347 345 342 337 334 330 329 327 325 321 317 313 311 309 309 310 311 312 312 316 321 348 249 252 294 105 159 149 143 170 161 145 177 181 195 135 214 147 172 141 127 140
0 349 348 347 350 345 340 335 331 331 333 328 328 325 323 318 312 308 304 304 305 305 305 305 311 322 18 256 253 182 133 134 150 149 172 164 181 195 284 237 171 195 166 164 158 171 141
360 346 348 348 348 340 335 335 333 332 330 326 326 322 323 321 315 310 304 303 301 299 294 292 278 246 300 243 48 88 129 155 165 157 162 201 198 117 74 291 246 217 161 165 170 167 122
358 348 348 348 347 340 338 339 338 335 330 326 326 327 326 323 319 314 310 305 295 289 279 254 223 175 248 244 288 278 186 170 160 176 69 214 146 246 209 286 331 211 130 154 174 174 188
356 347 347 348 347 341 338 340 343 343 341 334 330 329 330 325 322 317 309 298 290 280 224 164 110 124 267 311 225 211 169 180 154 115 297 262 154 207 245 124 14 17 162 189 165 197 137
352 347 348 348 346 341 337 337 344 346 344 335 330 329 327 324 320 320 313 301 244 257 179 169 254 317 272 319 242 178 188 143 151 133 167 188 139 148 50 88 187 68 41 131 149 170 98
352 348 348 347 346 340 337 340 342 343 344 341 333 332 328 326 324 330 344 93 15 52 236 201 201 233 281 278 252 188 144 112 116 105 148 193 128 199 192 176 132 103 1 79 65 82 86
351 347 345 345 342 339 339 338 335 333 343 337 332 328 324 322 319 329 352 182 222 166 299 223 238 268 275 79 334 243 110 147 154 161 121 44 213 220 171 166 126 124 100 88 79 127 73
348 347 346 343 340 339 338 336 332 328 329 337 333 329 326 320 316 284 189 229 216 348 234 302 189 200 219 145 191 256 136 153 142 137 135 156 245 169 146 135 127 138 159 175 141 146 142
343 344 346 341 338 339 335 334 329 321 320 324 333 332 325 321 314 265 265 222 229 175 58 295 291 281 158 150 303 181 167 144 150 182 150 222 233 147 161 230 136 203 191 154 151 164 176
342 342 345 341 335 336 331 329 324 318 316 318 323 319 312 326 306 220 244 291 231 69 52 332 295 158 126 157 153 226 169 90 156 156 108 246 180 189 188 213 151 223 154 179 159 94 99
332 343 337 337 331 330 327 327 323 317 317 321 320 321 317 138 212 242 308 315 62 39 25 333 341 352 6 338 148 140 127 79 149 126 104 222 220 171 208 216 181 141 83 58 65 99 327
327 329 328 332 330 327 327 328 326 321 319 319 320 312 265 291 229 34 306 38 42 84 327 323 304 347 53 284 152 126 155 103 139 95 346 331 260 234 163 253 251 127 93 51 48 33 221
322 325 324 331 333 328 331 332 327 321 323 324 325 293 224 231 331 26 48 51 64 248 281 284 284 300 215 157 224 169 116 149 264 107 118 184 308 167 182 184 190 186 152 151 156 187 236
319 329 332 338 337 331 334 332 325 323 327 327 321 316 252 255 188 135 72 56 198 236 280 306 325 35 336 15 30 156 152 183 207 171 169 169 269 292 186 161 143 194 146 185 105 15 99
321 336 339 341 341 333 334 332 329 327 328 335 333 337 264 93 137 65 69 219 229 221 296 7 50 57 347 315 57 79 32 312 320 234 160 228 260 273 277 130 44 152 161 76 13 139 147
335 339 331 343 339 333 333 334 333 330 332 335 17 18 320 123 66 48 118 226 273 254 214 194 22 4 352 333 17 78 356 283 312 329 94 110 141 288 2 48 170 45 65 60 110 105 144
342 337 334 344 336 334 335 335 331 332 334 46 60 33 314 357 49 57 116 207 260 291 41 35 74 32 57 6 13 70 78 188 319 102 63 334 129 200 232 285 264 56 148 126 120 200 78
347 341 338 344 335 336 336 335 333 334 1 343 83 271 337 58 17 298 282 286 297 5 11 23 23 330 53 51 81 28 353 31 7 60 65 19 16 43 1 359 5 49 347 96 106 87 170
348 343 337 344 334 340 341 335 329 335 324 143 93 56 343 46 64 147 114 353 11 358 49 8 4 345 49 17 19 329 25 357 345 17 107 83 69 122 147 219 223 13 328 118 105 109 152
344 336 336 341 336 343 345 338 336 347 31 133 35 191 183 285 330 73 85 68 56 15 23 18 17 18 46 44 5 11 20 359 350 5 30 88 99 54 43 336 154 126 323 184 142 155 141
341 335 335 346 339 345 348 343 342 354 71 56 80 44 357 70 342 68 12 351 68 34 38 350 67 19 45 77 57 346 348 48 12 321 29 354 132 109 352 16 19 34 21 37 46 114 65
340 333 335 347 341 348 352 351 349 356 353 58 317 8 98 326 10 64 278 209 15 116 20 33 280 78 41 357 290 260 210 219 235 336 16 45 80 55 153 318 37 354 356 342 43 293 142
336 333 335 343 345 349 355 355 355 2 20 115 271 93 79 339 91 182 157 96 68 62 127 33 14 37 294 321 282 10 20 355 65 24 8 86 79 31 212 24 63 263 16 74 79 27 130
335 331 332 343 344 348 352 355 1 357 0 198 282 91 105 82 262 315 102 89 74 23 42 61 356 223 353 32 47 33 347 13 2 14 11 44 106 75 108 99 223 350 350 347 25 31 134
329 329 329 339 338 346 353 354 357 359 354 347 286 139 104 113 301 275 89 11 136 21 354 338 333 55 68 69 58 93 156 266 326 342 34 40 62 102 64 103 195 236 268 10 98 65 348
326 325 322 331 340 347 352 351 353 359 358 344 291 320 95 98 287 67 108 144 114 95 146 310 344 21 54 49 63 85 302 199 52 29 343 2 3 104 100 120 296 204 292 323 279 223 163
315 319 320 333 337 341 350 350 351 353 351 13 274 302 110 115 288 8 80 116 77 87 133 268 39 353 42 64 107 234 108 250 65 276 133 134 112 249 58 88 237 22 335 177 235 349 163
304 311 319 325 334 336 346 346 344 348 351 353 330 340 329 115 207 314 3 262 161 185 137 28 168 174 178 89 89 116 70 50 125 287 320 26 174 178 152 216 256 289 256 299 202 161 162